User: anonymous   Login
Location: Oshawa
(43.9000°N, 78.8670°W)
Time: 17:36:38
(UTC-04:00)
Language:

Explorer 11/Cluster Stage 4 - Orbit

View from above orbital plane
View from above orbital plane
View from above satellite
View from above satellite

Ground track
Ground track

The orbit data is extracted from the following two-line orbital elements,

1   107U 61013A   16241.90057744 +.00000566 +00000-0 +58129-4 0  9995
2   107 028.7883 098.8086 0550712 005.1539 355.4422 14.07946616770281
Epoch (UTC): 28 August 2016 21:36:49
Eccentricity: 0.0550712
inclination: 28.7883°
perigee height: 467 km
apogee height: 1265 km
right ascension of ascending node: 98.8086°
argument of perigee: 5.1539°
revolutions per day: 14.07946616
mean anomaly at epoch: 355.4422°
orbit number at epoch: 77028

The dashed part of the orbit path shows where the satellite is in the earth's shadow,  

DLR